Weather History for Salt Lake City, UT

Change the Weather History Date:

Thursday, March 21, 2013

  Actual Average Record
Temperature  
Mean Temperature 42 °F 45 °F  
Max Temperature 52 °F 55 °F 74 °F (1910)
Min Temperature 31 °F 35 °F 14 °F (1948)
Degree Days  
Heating Degree Days 23 20  
Month to date heating degree days 430 474  
Since 1 July heating degree days 4662 4730  
Cooling Degree Days 0 0  
Month to date cooling degree days 0 0  
Year to date cooling degree days 0 0  
Moisture  
Dew Point 28 °F    
Average Humidity 62    
Maximum Humidity 96    
Minimum Humidity 28    
Precipitation  
Precipitation 0.17 in 0.06 in 0.71 in (1980)
Month to date precipitation 0.56 1.15  
Year to date precipitation 2.76 3.65  
Snow  
Snow 0.00 in 0.20 in 6.40 in (1980)
Month to date snowfall 0.0 4.6  
Since 1 July snowfall 67.1 50.0  
Snow Depth 0.00 in    
Sea Level Pressure  
Sea Level Pressure 29.92 in    
Wind  
Wind Speed 10 mph (NW)    
Max Wind Speed 31 mph    
Max Gust Speed 38 mph    
Visibility 7 miles    
Events Rain , Snow    
T = Trace of Precipitation, MM = Missing Value Source: NWS Daily Summary

Daily Weather History Graph

Daily Weather History Graph

Search for Another Location

Airport:

Trip Planner

Search our weather history database for the weather conditions in past years. The results will help you decide how hot, cold, wet, or windy it might be!

Date:

Astronomy

Mar. 21, 2013 Rise Set
Actual Time 7:29 AM MDT 7:41 PM MDT
Civil Twilight 7:01 AM MDT 8:08 PM MDT
Nautical Twilight 6:29 AM MDT 8:40 PM MDT
Astronomical Twilight 5:57 AM MDT 9:13 PM MDT
Moon 2:13 PM MDT (3/21) 3:55 AM MDT (3/21)
Length of Visible Light 13h 07m
Length of Day
12h 12m
Waxing Gibbous, 69% of the Moon is Illuminated
Mar 21
Waxing Gibbous
Mar 27
Full
Apr 2
Last Quarter
Apr 10
New
Apr 18
First Quarter

Hourly Weather History & Observations

Time (MDT) Temp. Windchill Dew Point Humidity Pressure Visibility Wind Dir Wind Speed Gust Speed Precip Events Conditions
12:53 AM 48.9 °F - 37.9 °F 66% 29.67 in 10.0 mi SSE 9.2 mph - N/A   Mostly Cloudy
1:53 AM 51.1 °F - 37.0 °F 59% 29.63 in 10.0 mi South 20.7 mph 25.3 mph 0.00 in   Mostly Cloudy
2:28 AM 51.8 °F - 35.6 °F 54% 29.74 in 10.0 mi NW 11.5 mph 23.0 mph N/A   Mostly Cloudy
2:53 AM 46.9 °F - 39.9 °F 77% 29.68 in 10.0 mi North 11.5 mph - 0.00 in Rain Light Rain
3:53 AM 46.0 °F - 41.0 °F 83% 29.68 in 10.0 mi Calm Calm - 0.01 in   Mostly Cloudy
4:53 AM 43.0 °F 35.1 °F 37.0 °F 80% 29.72 in 10.0 mi North 17.3 mph 28.8 mph 0.00 in   Overcast
5:53 AM 39.9 °F 29.2 °F 30.9 °F 70% 29.79 in 10.0 mi NNW 25.3 mph 33.4 mph N/A   Overcast
6:09 AM 39.2 °F 29.3 °F 30.2 °F 70% 29.88 in 9.0 mi NNW 20.7 mph 38.0 mph 0.00 in Rain Light Rain
6:31 AM 35.6 °F 24.8 °F 30.2 °F 81% 29.92 in 1.0 mi NNW 19.6 mph - 0.01 in Snow Light Snow
6:45 AM 33.8 °F 21.9 °F 32.0 °F 93% 29.93 in 0.8 mi NNW 21.9 mph 28.8 mph 0.02 in Snow Light Snow
6:53 AM 34.0 °F 23.0 °F 32.0 °F 92% 29.90 in 0.8 mi NNW 18.4 mph 27.6 mph 0.04 in Snow Light Snow
7:46 AM 33.8 °F 28.6 °F 32.0 °F 93% 29.93 in 1.5 mi NNE 5.8 mph - 0.07 in Snow Light Snow
7:53 AM 33.1 °F - 33.1 °F 100% 29.91 in 1.0 mi Calm Calm - 0.07 in Snow Light Snow
8:04 AM 33.8 °F 29.6 °F 30.2 °F 87% 29.94 in 3.0 mi West 4.6 mph - 0.00 in   Mostly Cloudy
8:18 AM 33.8 °F 30.8 °F 33.8 °F 100% 29.94 in 3.0 mi SW 3.5 mph - 0.00 in Snow Light Snow
8:30 AM 33.8 °F - 33.8 °F 100% 29.94 in 3.0 mi Calm Calm - 0.01 in Snow Light Snow
8:39 AM 33.8 °F - 32.0 °F 93% 29.95 in 2.0 mi Calm Calm - 0.02 in Snow Light Snow
8:45 AM 33.8 °F - 32.0 °F 93% 29.95 in 3.0 mi Calm Calm - 0.02 in Snow Light Snow
8:53 AM 34.0 °F 31.0 °F 32.0 °F 92% 29.94 in 3.0 mi WNW 3.5 mph - 0.03 in Snow Light Snow
9:04 AM 33.8 °F 27.0 °F 32.0 °F 93% 29.96 in 3.0 mi West 8.1 mph - 0.00 in Snow Light Snow
9:24 AM 33.8 °F 30.8 °F 32.0 °F 93% 29.96 in 10.0 mi WSW 3.5 mph - 0.00 in   Mostly Cloudy
9:32 AM 33.8 °F 27.7 °F 32.0 °F 93% 29.97 in 10.0 mi West 6.9 mph - 0.00 in   Mostly Cloudy
9:53 AM 37.0 °F 27.4 °F 26.1 °F 65% 29.94 in 10.0 mi WNW 17.3 mph 21.9 mph 0.00 in   Scattered Clouds
10:53 AM 37.0 °F 26.2 °F 27.0 °F 67% 29.97 in 1.5 mi NNW 21.9 mph 29.9 mph 0.00 in Snow Light Snow
11:04 AM 33.8 °F 22.8 °F 28.4 °F 81% 30.00 in 1.0 mi NW 18.4 mph 29.9 mph 0.00 in Snow Light Snow
11:08 AM 33.8 °F 23.5 °F 28.4 °F 81% 30.01 in 0.8 mi NW 16.1 mph - 0.01 in Snow Light Snow
11:15 AM 32.0 °F 23.6 °F 28.4 °F 87% 30.01 in 1.0 mi North 10.4 mph 23.0 mph 0.02 in Snow Light Snow
11:20 AM 32.0 °F 21.6 °F 28.4 °F 87% 30.00 in 3.0 mi North 15.0 mph - 0.02 in Snow Light Snow
11:24 AM 33.8 °F 25.3 °F 28.4 °F 81% 30.00 in 7.0 mi North 11.5 mph - 0.02 in Snow Light Snow
11:39 AM 35.6 °F 28.0 °F 28.4 °F 75% 30.00 in 10.0 mi NNE 10.4 mph - 0.02 in   Mostly Cloudy
11:53 AM 36.0 °F 30.3 °F 28.0 °F 73% 29.98 in 10.0 mi NNE 6.9 mph - 0.02 in   Mostly Cloudy
12:53 PM 42.1 °F 34.2 °F 26.1 °F 53% 29.98 in 10.0 mi WNW 16.1 mph 21.9 mph N/A   Mostly Cloudy
1:53 PM 39.9 °F 32.9 °F 24.1 °F 53% 29.99 in 10.0 mi NNW 11.5 mph - N/A   Mostly Cloudy
2:53 PM 42.1 °F 36.6 °F 19.9 °F 41% 30.00 in 10.0 mi WNW 9.2 mph 19.6 mph N/A   Scattered Clouds
3:53 PM 42.1 °F 35.7 °F 18.0 °F 38% 30.00 in 10.0 mi WNW 11.5 mph - N/A   Scattered Clouds
4:53 PM 44.1 °F 39.0 °F 17.1 °F 34% 29.99 in 10.0 mi NW 9.2 mph 19.6 mph N/A   Scattered Clouds
5:53 PM 44.1 °F 41.5 °F 14.0 °F 30% 29.98 in 10.0 mi Variable 4.6 mph - N/A   Partly Cloudy
6:53 PM 42.1 °F 36.6 °F 16.0 °F 35% 29.99 in 10.0 mi North 9.2 mph - N/A   Scattered Clouds
7:53 PM 39.9 °F - 16.0 °F 38% 29.99 in 10.0 mi Calm Calm - N/A   Scattered Clouds
8:53 PM 39.0 °F - 15.1 °F 38% 29.98 in 10.0 mi Calm Calm - N/A   Scattered Clouds
9:53 PM 36.0 °F 32.1 °F 17.1 °F 46% 29.98 in 10.0 mi ESE 4.6 mph - N/A   Scattered Clouds
10:53 PM 36.0 °F 32.1 °F 19.0 °F 50% 29.98 in 10.0 mi South 4.6 mph - N/A   Scattered Clouds
11:53 PM 33.1 °F 28.7 °F 19.9 °F 59% 30.00 in 10.0 mi North 4.6 mph - N/A   Partly Cloudy